| time (UTC) | temp F | wind direction | speed MPH | gust MPH | rain 1hr in | rain 24hr in | rain mn in | humidity % | barometer mb |
| 20260902130031 | 63 | 80 | 7.0 | 10.0 | 0.00 | 0.13 | 0.00 | 94 | 1021.8 |
| 20260902124531 | 63 | 85 | 3.0 | 10.0 | 0.00 | 0.13 | 0.00 | 94 | 1022.0 |
| 20260902123033 | 63 | 87 | 6.0 | 10.0 | 0.00 | 0.13 | 0.00 | 94 | 1022.0 |
| 20260902121529 | 63 | 73 | 4.0 | 9.0 | 0.00 | 0.13 | 0.00 | 94 | 1022.2 |
| 20260902120030 | 63 | 68 | 7.0 | 10.0 | 0.00 | 0.13 | 0.00 | 94 | 1022.1 |
| 20260902114536 | 63 | 74 | 6.0 | 10.0 | 0.00 | 0.13 | 0.00 | 95 | 1022.1 |
| 20260902113035 | 63 | 75 | 7.0 | 12.0 | 0.00 | 0.13 | 0.00 | 95 | 1021.9 |
| 20260902111520 | 63 | 95 | 6.0 | 10.0 | 0.00 | 0.13 | 0.00 | 96 | 1021.7 |
| 20260902110013 | 63 | 76 | 7.0 | 10.0 | 0.00 | 0.13 | 0.00 | 96 | 1021.6 |
| 20260902104513 | 63 | 69 | 5.0 | 10.0 | 0.00 | 0.13 | 0.00 | 96 | 1021.4 |
| 20260902103020 | 63 | 73 | 6.0 | 10.0 | 0.00 | 0.13 | 0.00 | 96 | 1021.4 |
| 20260902101505 | 63 | 59 | 4.0 | 9.0 | 0.00 | 0.13 | 0.00 | 96 | 1021.1 |
| 20260902100005 | 63 | 84 | 6.0 | 8.0 | 0.00 | 0.13 | 0.00 | 96 | 1021.1 |
| 20260902094502 | 63 | 39 | 4.0 | 6.0 | 0.00 | 0.13 | 0.00 | 95 | 1021.1 |
| 20260902093100 | 63 | 74 | 5.0 | 9.0 | 0.00 | 0.13 | 0.00 | 95 | 1020.9 |
| 20260902091541 | 63 | 81 | 6.0 | 8.0 | 0.00 | 0.13 | 0.00 | 95 | 1020.6 |
| 20260902090039 | 63 | 62 | 3.0 | 7.0 | 0.00 | 0.13 | 0.00 | 95 | 1020.6 |
| 20260902084528 | 63 | 68 | 3.0 | 4.0 | 0.00 | 0.13 | 0.00 | 95 | 1020.7 |
| 20260902083026 | 63 | 48 | 2.0 | 4.0 | 0.00 | 0.13 | 0.00 | 94 | 1020.9 |
| 20260902081525 | 63 | 50 | 0.0 | 2.0 | 0.00 | 0.13 | 0.00 | 94 | 1020.8 |
| 20260902080025 | 63 | 42 | 1.0 | 3.0 | 0.00 | 0.13 | 0.00 | 94 | 1021.0 |
| 20260902074523 | 63 | 9 | 0.0 | 2.0 | 0.00 | 0.13 | 0.00 | 94 | 1020.9 |
| 20260902073022 | 63 | 36 | 0.0 | 0.0 | 0.00 | 0.13 | 0.00 | 94 | 1020.8 |
| 20260902071520 | 64 | 80 | 0.0 | 0.0 | 0.00 | 0.13 | 0.00 | 93 | 1020.6 |
| 20260902070020 | 64 | 80 | 0.0 | 0.0 | 0.00 | 0.13 | 0.00 | 94 | 1020.7 |
| 20260902064508 | 64 | 80 | 0.0 | 0.0 | 0.00 | 0.13 | 0.00 | 93 | 1020.6 |
| 20260902063009 | 64 | 355 | 0.0 | 0.0 | 0.00 | 0.13 | 0.00 | 94 | 1020.6 |
| 20260902061507 | 64 | 355 | 0.0 | 1.0 | 0.00 | 0.13 | 0.00 | 93 | 1020.6 |
| 20260902060007 | 64 | 355 | 0.0 | 2.0 | 0.00 | 0.13 | 0.00 | 93 | 1020.6 |
| 20260902054504 | 64 | 14 | 1.0 | 3.0 | 0.00 | 0.13 | 0.00 | 93 | 1020.6 |
| 20260902053003 | 64 | 9 | 2.0 | 4.0 | 0.00 | 0.13 | 0.00 | 93 | 1020.5 |
| 20260902051501 | 64 | 355 | 1.0 | 3.0 | 0.00 | 0.13 | 0.00 | 92 | 1020.3 |
| 20260902050118 | 64 | 35 | 0.0 | 0.0 | 0.00 | 0.13 | 0.00 | 91 | 1019.8 |
| 20260902044540 | 64 | 36 | 0.0 | 0.0 | 0.00 | 0.13 | 0.00 | 91 | 1019.7 |
| 20260902043039 | 64 | 35 | 0.0 | 2.0 | 0.00 | 0.13 | 0.00 | 91 | 1019.6 |
| 20260902041538 | 63 | 35 | 1.0 | 2.0 | 0.00 | 0.13 | 0.00 | 91 | 1019.5 |
| 20260902040035 | 64 | 40 | 0.0 | 2.0 | 0.00 | 0.13 | 0.00 | 91 | 1019.2 |
| 20260902034534 | 64 | 40 | 1.0 | 2.0 | 0.00 | 0.13 | 0.00 | 90 | 1019.1 |
| 20260902033036 | 64 | 40 | 0.0 | 0.0 | 0.00 | 0.13 | 0.00 | 90 | 1019.0 |
| 20260902031533 | 64 | 40 | 0.0 | 2.0 | 0.00 | 0.13 | 0.00 | 89 | 1019.1 |
| 20260902030032 | 64 | 40 | 0.0 | 0.0 | 0.00 | 0.13 | 0.00 | 89 | 1019.1 |
| 20260902024518 | 64 | 40 | 0.0 | 0.0 | 0.00 | 0.13 | 0.00 | 89 | 1019.0 |
| 20260902023019 | 64 | 40 | 0.0 | 0.0 | 0.00 | 0.13 | 0.00 | 89 | 1019.0 |
| 20260902021518 | 64 | 40 | 0.0 | 2.0 | 0.00 | 0.13 | 0.00 | 90 | 1019.2 |
| 20260902020022 | 65 | 40 | 0.0 | 2.0 | 0.00 | 0.13 | 0.00 | 88 | 1019.2 |
| 20260902014531 | 65 | 15 | 0.0 | 2.0 | 0.00 | 0.13 | 0.00 | 88 | 1019.2 |
| 20260902013015 | 64 | 15 | 0.0 | 1.0 | 0.00 | 0.13 | 0.00 | 88 | 1019.1 |
| 20260902011533 | 65 | 111 | 0.0 | 2.0 | 0.00 | 0.13 | 0.00 | 87 | 1018.8 |
| 20260902010016 | 65 | 109 | 0.0 | 1.0 | 0.00 | 0.13 | 0.00 | 86 | 1018.9 |
| 20260902004503 | 64 | 324 | 0.0 | 2.0 | 0.00 | 0.13 | 0.00 | 86 | 1019.0 |
| 20260902003002 | 64 | 303 | 0.0 | 2.0 | 0.00 | 0.13 | 0.00 | 87 | 1018.9 |
| 20260902001620 | 65 | 60 | 0.0 | 2.0 | 0.00 | 0.13 | 0.00 | 88 | 1018.4 |
| 20260902000059 | 65 | 76 | 0.0 | 2.0 | 0.00 | 0.13 | 0.00 | 86 | 1018.3 |
| 20260901234559 | 65 | 140 | 0.0 | 0.0 | 0.00 | 0.13 | 0.00 | 84 | 1018.5 |
| 20260901233059 | 66 | 140 | 0.0 | 0.0 | 0.00 | 0.13 | 0.00 | 81 | 1018.5 |
| 20260901231557 | 66 | 140 | 1.0 | 2.0 | 0.00 | 0.13 | 0.00 | 80 | 1018.4 |
| 20260901230056 | 66 | 177 | 0.0 | 2.0 | 0.00 | 0.13 | 0.00 | 80 | 1018.5 |
| 20260901224539 | 66 | 208 | 0.0 | 2.0 | 0.00 | 0.13 | 0.00 | 81 | 1018.3 |
| 20260901223034 | 65 | 126 | 0.0 | 2.0 | 0.00 | 0.13 | 0.00 | 87 | 1018.3 |
| 20260901221520 | 65 | 117 | 1.0 | 4.0 | 0.00 | 0.13 | 0.00 | 90 | 1018.3 |
| 20260901220020 | 65 | 104 | 2.0 | 5.0 | 0.00 | 0.13 | 0.00 | 91 | 1018.3 |
| 20260901214534 | 65 | 107 | 2.0 | 5.0 | 0.00 | 0.13 | 0.00 | 92 | 1018.1 |
| 20260901213016 | 65 | 109 | 5.0 | 7.0 | 0.00 | 0.13 | 0.00 | 92 | 1018.1 |
| 20260901211515 | 65 | 110 | 5.0 | 7.0 | 0.00 | 0.13 | 0.00 | 91 | 1018.2 |
| 20260901210013 | 65 | 100 | 5.0 | 7.0 | 0.00 | 0.13 | 0.00 | 91 | 1018.0 |
| 20260901204510 | 65 | 88 | 3.0 | 7.0 | 0.00 | 0.13 | 0.00 | 91 | 1017.8 |
| 20260901203009 | 64 | 121 | 2.0 | 7.0 | 0.00 | 0.13 | 0.00 | 91 | 1017.7 |
| 20260901201506 | 64 | 98 | 4.0 | 7.0 | 0.00 | 0.13 | 0.00 | 91 | 1017.7 |
| 20260901200005 | 64 | 62 | 7.0 | 10.0 | 0.00 | 0.13 | 0.13 | 91 | 1017.7 |
| 20260901194506 | 64 | 69 | 8.0 | 10.0 | 0.00 | 0.13 | 0.13 | 91 | 1017.8 |
| 20260901193006 | 64 | 52 | 6.0 | 8.0 | 0.00 | 0.13 | 0.13 | 91 | 1017.9 |
| 20260901191507 | 64 | 93 | 5.0 | 9.0 | 0.00 | 0.13 | 0.13 | 90 | 1017.9 |
| 20260901190004 | 64 | 76 | 5.0 | 9.0 | 0.00 | 0.13 | 0.13 | 90 | 1017.9 |
| 20260901184608 | 64 | 67 | 5.0 | 10.0 | 0.00 | 0.13 | 0.13 | 90 | 1017.9 |
| 20260901183105 | 64 | 79 | 7.0 | 8.0 | 0.00 | 0.13 | 0.13 | 90 | 1017.9 |
| 20260901181551 | 64 | 72 | 6.0 | 7.0 | 0.00 | 0.13 | 0.13 | 90 | 1017.8 |
| 20260901180051 | 63 | 82 | 7.0 | 9.0 | 0.00 | 0.13 | 0.13 | 90 | 1017.7 |
| 20260901174552 | 63 | 90 | 4.0 | 7.0 | 0.00 | 0.13 | 0.13 | 90 | 1017.5 |
| 20260901173051 | 63 | 111 | 3.0 | 8.0 | 0.00 | 0.13 | 0.13 | 90 | 1017.6 |
| 20260901171556 | 63 | 79 | 4.0 | 8.0 | 0.00 | 0.13 | 0.13 | 89 | 1017.9 |
| 20260901170050 | 62 | 74 | 7.0 | 9.0 | 0.00 | 0.13 | 0.13 | 90 | 1017.8 |
| 20260901164548 | 63 | 79 | 6.0 | 8.0 | 0.00 | 0.13 | 0.13 | 90 | 1018.0 |
| 20260901163041 | 62 | 34 | 6.0 | 8.0 | 0.00 | 0.13 | 0.13 | 90 | 1018.0 |
| 20260901161536 | 63 | 58 | 5.0 | 6.0 | 0.00 | 0.13 | 0.13 | 90 | 1017.9 |
| 20260901160039 | 63 | 94 | 4.0 | 7.0 | 0.00 | 0.13 | 0.13 | 91 | 1017.6 |
| 20260901154557 | 62 | 71 | 6.0 | 8.0 | 0.00 | 0.13 | 0.13 | 91 | 1017.6 |
| 20260901153043 | 62 | 73 | 4.0 | 8.0 | 0.00 | 0.13 | 0.13 | 92 | 1017.8 |
| 20260901151534 | 62 | 108 | 3.0 | 9.0 | 0.00 | 0.13 | 0.13 | 92 | 1017.7 |
| 20260901150033 | 62 | 82 | 5.0 | 9.0 | 0.02 | 0.13 | 0.13 | 93 | 1017.6 |
| 20260901144536 | 62 | 71 | 5.0 | 6.0 | 0.03 | 0.13 | 0.13 | 93 | 1017.7 |
| 20260901143021 | 61 | 96 | 5.0 | 7.0 | 0.04 | 0.13 | 0.13 | 93 | 1017.4 |
| 20260901141522 | 61 | 77 | 3.0 | 6.0 | 0.07 | 0.13 | 0.13 | 93 | 1017.4 |
| 20260901140021 | 61 | 95 | 1.0 | 3.0 | 0.07 | 0.11 | 0.11 | 93 | 1017.6 |
| 20260901134520 | 61 | 115 | 0.0 | 2.0 | 0.08 | 0.10 | 0.10 | 93 | 1017.7 |
| 20260901133020 | 61 | 50 | 1.0 | 2.0 | 0.09 | 0.09 | 0.09 | 93 | 1018.0 |
| 20260901131519 | 61 | 42 | 1.0 | 3.0 | 0.06 | 0.06 | 0.06 | 92 | 1018.2 |